Lapse_Rate
5.6 5.3 5.4 6.1 5.7 5.7 5.8 6.0 6.0 6.3 7.0 7.1 6.7 6.1 6.4 6.4 6.7 7.0 6.7 6.9 6.9 6.9 6.8 6.9 6.6 6.4 6.2 6.1 6.0 6.2 6.4 6.0 5.9 5.7 5.7 5.5 5.4 5.6 5.5 5.5 5.2 5.0 4.8 5.2
5.5 5.2 5.7 5.9 6.0 6.1 6.2 6.2 6.3 6.6 7.0 7.4 6.9 6.2 6.4 6.6 7.1 7.2 7.4 7.1 7.2 7.2 6.9 7.0 6.9 6.6 6.4 6.7 6.7 6.4 6.4 6.0 5.9 5.8 5.7 5.9 5.7 5.6 5.5 5.3 5.4 5.1 5.3 5.2
6.0 6.1 6.4 6.2 6.3 6.3 6.4 6.8 6.8 6.7 6.9 7.0 7.0 6.6 6.9 7.3 7.6 7.6 7.5 7.4 7.1 6.9 7.0 7.2 7.0 6.9 6.7 6.7 6.7 6.6 6.5 6.2 6.1 6.0 5.8 5.7 5.6 5.7 5.9 5.7 5.8 5.5 5.5 5.5
6.3 6.4 6.6 7.0 6.8 6.9 6.6 7.3 7.0 6.9 7.1 7.0 7.6 6.8 6.9 7.6 8.3 8.1 7.8 7.9 7.4 7.1 7.1 7.2 7.3 6.7 6.8 7.0 6.6 6.5 6.3 6.2 6.2 6.0 5.9 5.8 5.7 5.7 5.6 5.7 5.6 5.6 5.4 5.5
6.5 6.8 6.8 7.0 7.1 7.5 6.9 7.4 7.0 6.9 7.2 7.4 6.9 7.9 6.9 7.9 8.3 8.5 8.3 7.9 7.7 7.5 7.2 7.6 7.2 6.9 6.8 6.8 6.7 6.6 6.5 6.2 6.1 6.2 6.0 6.0 6.0 5.8 5.7 5.7 5.7 5.5 5.5 5.9
6.6 7.3 7.3 7.5 7.3 7.2 7.2 7.2 7.1 7.2 7.0 6.6 6.6 8.0 6.8 7.8 8.5 8.3 8.3 8.0 7.6 7.6 7.3 7.3 6.7 6.9 6.5 6.8 6.7 6.7 6.5 6.3 6.2 6.0 6.0 6.0 6.0 5.9 5.7 5.6 5.4 5.5 5.6 5.8
7.1 7.0 7.7 8.1 7.9 8.0 7.5 7.4 7.3 7.3 6.4 6.2 7.5 8.3 7.9 8.6 8.7 8.2 8.5 7.7 7.4 8.3 7.8 7.4 7.0 6.9 6.8 6.8 6.8 6.6 6.4 6.3 6.1 6.1 6.1 6.0 6.0 5.8 5.7 5.6 5.5 5.5 5.7 5.7
6.8 6.6 7.8 7.4 7.3 6.6 7.7 8.0 7.9 7.0 6.7 7.0 8.1 8.0 7.8 7.8 7.9 8.1 8.1 8.3 7.9 7.7 7.8 7.8 7.3 6.9 6.6 6.6 6.7 6.6 6.3 6.2 6.2 6.1 6.0 6.0 5.9 5.8 5.7 5.6 5.5 5.8 6.0 5.9
6.4 6.6 7.3 7.6 7.4 7.0 7.3 7.8 7.2 7.7 7.5 7.5 7.4 7.5 7.7 7.9 7.9 7.8 7.9 7.9 7.7 7.3 7.4 7.9 7.7 7.0 6.6 6.7 6.5 6.1 6.1 6.1 6.1 6.0 6.0 5.9 5.8 5.8 5.7 5.3 5.5 5.8 5.9 6.0
5.7 5.5 6.3 5.9 6.1 7.1 7.4 7.4 7.7 8.0 7.4 6.7 7.7 7.9 8.0 8.4 8.4 8.0 7.7 7.6 7.6 7.4 7.7 7.6 7.4 7.0 6.8 6.5 6.2 6.1 6.0 6.1 6.0 5.9 5.8 5.8 5.8 5.7 5.8 5.7 5.8 5.8 5.9 6.0
4.9 5.0 4.8 4.9 5.5 5.7 6.0 6.9 7.3 6.3 6.8 7.1 7.5 7.9 8.6 8.7 8.7 8.2 7.7 7.9 7.8 7.5 7.5 7.6 7.0 6.5 7.0 6.4 6.3 6.1 6.0 6.0 5.8 5.9 5.7 5.7 5.6 5.6 5.8 5.9 5.8 5.8 5.7 5.7
5.1 4.8 4.7 5.0 5.3 5.9 6.4 6.5 6.6 6.7 7.0 6.3 6.3 6.8 7.7 6.6 6.6 7.7 7.7 7.6 8.0 7.9 7.7 7.6 6.2 6.3 6.6 6.3 6.3 6.2 6.0 5.9 5.9 5.7 5.6 5.7 5.6 5.7 5.9 5.9 5.8 5.6 5.4 5.6
5.1 5.5 5.3 5.2 6.4 7.2 6.9 7.2 6.8 6.5 6.8 6.4 6.7 6.7 6.2 6.2 5.9 6.0 7.0 7.5 7.5 7.6 7.0 7.1 6.2 6.5 6.4 6.4 6.4 6.2 6.0 6.1 5.9 5.7 5.7 5.9 5.8 5.9 5.9 5.9 5.6 5.3 5.4 5.5
6.0 6.1 5.9 6.1 6.6 6.4 6.3 6.7 6.7 7.1 6.3 6.5 5.9 5.5 5.5 5.8 5.2 5.9 5.9 6.2 7.1 7.1 7.2 6.6 6.6 6.6 6.5 6.4 6.3 6.2 6.1 6.0 5.7 5.8 5.8 5.9 5.8 5.9 6.2 6.2 5.4 4.9 4.9 5.4
5.9 6.3 6.1 6.8 7.0 6.5 6.6 7.3 7.6 7.5 7.2 6.5 5.8 5.7 5.4 5.9 5.4 4.9 5.7 6.5 6.6 6.9 7.0 6.8 6.9 6.6 6.5 6.4 6.5 6.3 6.3 6.0 5.9 5.7 5.8 5.8 5.7 5.9 6.1 5.8 4.6 4.7 5.0 5.3
6.5 6.4 6.9 6.6 7.1 7.2 7.5 7.1 7.8 7.9 7.6 7.2 6.1 5.6 6.0 6.2 6.0 4.9 5.4 6.3 6.1 5.8 6.2 6.7 6.8 6.8 6.4 6.4 6.7 6.4 6.3 6.2 5.9 5.8 5.8 5.7 5.7 5.7 5.8 5.4 4.3 4.6 4.9 5.3
6.5 6.7 7.0 6.3 7.6 7.6 6.7 7.0 7.4 7.7 7.8 7.6 6.9 6.3 6.5 6.4 6.2 5.1 5.0 6.1 6.3 5.7 5.8 6.3 6.9 7.0 6.7 6.6 6.7 6.3 6.3 6.2 6.1 5.9 5.8 5.8 5.7 5.6 5.5 5.4 4.5 4.6 4.9 5.1
6.9 7.2 7.5 7.1 7.6 6.9 7.7 7.7 7.6 7.6 7.6 7.3 7.4 7.1 6.8 6.6 6.1 6.0 5.1 5.3 6.0 5.9 5.9 6.2 6.6 6.8 6.8 6.8 7.0 6.5 6.4 6.2 6.1 5.9 5.9 5.8 5.6 5.5 5.4 5.4 4.6 5.2 5.0 5.0
7.7 7.7 7.5 7.6 7.9 7.7 8.1 8.0 7.9 7.9 7.4 7.9 7.8 7.2 7.0 6.8 6.7 5.5 5.5 5.4 5.2 6.0 6.3 5.9 6.0 6.3 6.5 6.8 7.0 6.8 6.4 6.3 6.2 5.9 5.9 5.8 5.6 5.4 5.5 5.3 4.8 5.0 5.1 4.9
7.8 7.6 7.7 7.7 7.8 7.9 8.5 8.4 7.9 8.0 7.9 8.2 8.2 7.1 6.9 6.5 6.3 5.8 5.8 5.6 5.2 5.2 6.0 6.4 6.2 5.6 6.0 6.4 6.9 6.8 6.6 6.3 6.1 5.9 5.7 5.7 5.6 5.4 5.6 5.5 5.2 4.8 5.0 5.0
8.2 7.9 7.8 7.6 7.7 7.5 8.1 8.0 7.9 7.9 8.1 8.7 8.7 7.8 7.0 6.3 6.1 5.8 5.7 5.8 5.1 5.6 5.3 6.1 6.2 6.2 6.1 6.3 6.9 6.8 6.6 6.2 6.1 5.9 5.7 5.6 5.6 5.4 5.7 5.8 5.6 5.1 5.0 5.3
8.2 8.0 8.0 7.9 7.9 8.1 7.9 7.9 7.5 7.8 8.0 8.0 8.4 8.1 6.6 5.8 5.9 6.2 6.2 6.0 5.3 5.8 6.2 5.8 5.9 5.7 6.0 6.3 6.7 6.8 6.5 6.3 6.1 5.9 5.6 5.6 5.6 5.4 5.8 6.0 5.9 5.8 5.8 5.6
8.1 8.3 8.0 7.7 8.1 8.4 8.3 7.9 7.8 7.5 7.3 7.6 8.1 8.0 7.3 6.3 6.2 6.3 6.1 6.0 6.2 6.1 6.2 6.2 5.9 5.9 6.3 6.4 6.7 6.8 6.7 6.3 6.0 5.9 5.7 5.5 5.6 5.4 5.8 6.1 6.1 6.3 6.1 5.8
8.1 8.2 7.6 7.9 8.3 7.9 7.8 7.9 7.9 7.8 8.1 8.1 8.2 7.9 7.5 6.3 6.3 6.6 5.8 6.1 6.4 6.4 6.2 6.2 6.6 6.8 6.6 6.8 6.8 6.6 6.9 6.0 5.9 5.8 5.7 5.6 5.7 5.7 5.8 6.1 6.0 6.2 6.0 5.8
7.9 8.0 8.0 7.9 8.0 7.8 8.0 8.0 8.0 7.9 7.9 8.1 8.0 8.1 7.9 7.6 6.6 6.3 6.0 6.0 6.5 6.3 6.1 6.3 6.6 6.7 6.9 6.8 6.8 6.8 6.8 6.0 6.0 5.8 5.7 5.7 5.7 5.9 5.7 6.1 6.1 6.0 5.8 5.6
8.3 8.1 7.8 7.5 7.9 7.6 7.9 7.5 7.4 7.8 8.0 8.0 8.0 7.9 7.9 7.5 7.2 6.5 6.1 5.8 6.4 6.1 6.2 6.2 6.5 6.5 6.7 6.7 6.9 7.2 6.7 6.1 5.8 5.8 5.9 5.7 5.8 6.0 6.0 6.1 6.1 5.9 5.7 5.7
Wind_Speed
11 9 13 14 14 16 15 15 16 14 15 13 13 14 10 10 10 13 10 10 10 11 10 10 10 10 8 9 9 9 9 7 5 4 7 4 3 2 2 3 4 6 8 5
13 15 15 15 14 14 16 16 15 14 10 14 14 14 9 11 16 15 16 12 11 10 10 9 11 12 11 9 8 8 8 7 6 4 3 4 5 4 5 4 6 8 7 4
15 13 11 16 14 15 17 14 13 16 12 14 14 18 15 20 22 23 20 20 15 12 11 10 12 15 13 11 9 8 8 8 7 5 3 4 4 4 3 2 2 3 8 10
11 15 19 17 15 13 17 11 12 14 13 10 6 15 13 14 16 9 8 9 2 7 7 4 6 12 14 10 10 8 8 8 7 7 5 6 4 3 3 4 3 4 8 8
8 6 5 8 12 12 18 10 13 9 11 8 13 7 12 9 11 14 6 9 6 7 9 9 7 9 9 8 10 9 8 7 7 7 5 5 4 3 2 3 6 4 3 8
15 15 14 11 14 8 14 12 13 6 5 10 16 12 15 9 6 5 5 9 7 6 7 7 4 9 9 9 8 8 8 5 7 6 4 5 5 3 3 3 3 3 4 4
14 17 12 16 16 12 10 11 5 5 6 11 7 10 11 5 1 1 4 8 8 6 1 3 8 8 9 8 8 7 8 5 6 6 6 4 2 2 1 2 4 5 2 2
6 17 1 20 15 10 18 14 8 5 7 5 6 4 4 4 6 6 1 6 8 5 4 6 7 8 8 10 8 9 4 5 7 7 7 7 7 4 4 5 2 3 3 4
7 10 19 20 18 12 9 11 14 18 19 11 9 14 11 8 9 7 5 7 3 6 7 7 6 7 10 9 7 7 6 6 6 7 5 6 4 4 4 4 3 2 2 3
7 11 9 13 20 13 12 16 8 1 4 9 6 10 7 12 15 8 6 4 7 7 7 7 5 7 10 10 6 4 8 6 6 7 7 5 5 5 5 4 5 3 4 5
10 7 15 19 6 19 17 8 8 4 7 5 8 5 12 11 10 10 7 7 10 6 5 2 6 7 12 10 5 5 5 7 7 5 7 6 6 7 8 7 5 4 4 2
11 8 16 20 21 19 22 15 5 3 5 5 4 8 17 26 16 10 6 5 9 7 7 6 7 11 10 10 8 6 5 5 7 7 6 5 5 5 5 6 4 3 3 2
8 4 9 13 12 10 10 5 2 9 3 6 4 3 14 18 28 13 4 2 9 8 6 8 6 10 9 6 6 6 5 7 8 6 6 5 6 5 5 5 5 5 5 4
7 9 13 11 14 14 17 15 8 5 5 8 8 9 11 12 22 26 10 4 7 8 5 5 6 7 11 9 8 5 5 6 7 6 6 6 5 5 5 5 6 5 4 4
10 15 16 18 19 18 19 20 17 10 13 13 15 12 7 7 15 22 18 9 6 6 8 5 6 4 8 9 11 9 5 6 5 7 6 6 4 6 5 5 7 5 4 4
9 14 16 19 18 20 21 20 20 19 17 11 15 16 5 4 11 19 6 9 9 6 8 8 8 6 4 6 12 10 8 6 7 7 5 5 6 5 6 5 7 5 5 6
12 11 12 18 15 18 17 15 17 19 18 14 16 15 12 7 5 15 14 4 8 9 8 6 10 7 5 3 13 10 9 7 7 8 7 5 7 7 6 6 8 6 7 9
16 14 10 11 11 15 14 16 20 21 19 20 17 17 13 10 8 13 15 6 5 5 9 8 3 7 6 4 11 12 10 7 7 8 7 6 8 9 8 7 8 6 8 9
16 12 5 4 9 17 18 14 13 11 20 19 9 6 8 8 4 7 11 5 5 4 5 6 6 3 7 6 7 12 12 8 8 9 7 6 9 9 8 8 8 7 10 10
7 10 8 3 5 7 5 13 9 15 10 11 6 10 14 8 4 2 3 5 3 4 5 6 5 6 7 8 7 13 13 9 9 9 8 8 9 9 9 8 9 8 9 10
1 2 8 10 8 7 11 8 7 2 5 11 5 9 12 11 4 5 3 4 5 1 6 6 8 6 9 10 11 12 13 10 9 10 10 9 10 10 9 8 6 9 10 11
4 3 3 3 4 5 5 6 5 6 13 12 8 8 10 8 8 5 5 5 5 3 6 4 5 5 8 8 12 12 12 11 11 11 11 11 11 9 8 9 5 8 10 12
3 4 1 3 4 15 13 5 8 15 12 14 7 7 7 6 5 1 2 5 5 5 5 4 4 6 4 5 12 13 11 14 12 11 12 11 11 11 10 8 7 6 8 8
7 2 4 8 3 12 9 8 7 11 13 8 7 5 3 4 4 3 3 4 5 6 5 3 4 3 2 2 9 12 16 15 13 12 11 11 11 13 10 6 4 6 5 5
7 11 8 12 13 8 8 13 4 7 12 7 3 3 3 3 3 2 3 5 5 5 5 6 2 4 2 2 5 12 16 15 13 11 10 6 9 9 9 5 3 4 4 5
9 14 9 10 9 5 11 13 7 11 15 7 7 6 7 5 2 1 3 3 4 4 5 6 5 6 4 4 5 13 16 15 14 11 8 7 8 7 7 7 6 14 11 13
Wind_Direction
210 219 230 233 234 248 266 273 280 291 298 305 297 290 260 261 263 273 271 260 251 259 267 200 176 173 159 140 136 146 136 159 145 147 142 134 169 181 149 152 176 218 247 204
242 232 243 253 263 272 274 280 284 293 293 286 282 287 288 267 260 256 251 253 251 243 246 234 173 167 153 152 145 142 147 162 151 149 152 153 161 187 180 175 169 207 211 177
251 258 269 223 246 253 260 263 269 278 296 287 300 285 270 258 257 257 248 250 247 242 230 245 186 169 152 148 151 153 155 155 146 146 116 78 74 70 78 96 157 205 222 164
268 264 259 263 272 264 269 262 271 278 283 280 276 288 277 290 293 282 234 232 291 332 260 284 286 149 147 144 140 148 146 149 149 147 128 133 157 158 185 182 198 222 219 158
247 259 226 252 278 280 266 269 266 272 297 291 268 255 271 264 262 267 218 81 60 8 3 13 131 120 124 113 127 131 135 139 127 135 149 162 169 174 189 141 170 208 148 132
265 271 277 279 285 281 309 279 279 257 250 254 245 239 265 256 257 357 87 98 84 45 349 340 96 102 97 100 103 109 118 123 122 131 157 150 159 155 109 118 133 85 67 64
311 281 301 293 264 250 240 270 269 247 209 231 210 240 250 341 64 3 7 98 110 97 330 85 101 101 104 108 106 111 123 135 139 142 142 142 142 130 139 146 125 110 107 190
292 302 13 12 350 313 299 228 232 239 233 257 262 216 233 352 100 113 61 88 102 113 127 110 111 105 119 100 97 91 111 134 96 83 75 73 71 72 83 97 97 104 192 194
332 274 341 333 355 357 309 302 280 271 265 279 265 272 286 237 201 147 156 73 112 153 119 115 114 122 105 113 104 126 165 119 113 112 120 131 110 126 106 135 135 176 170 137
327 302 334 343 340 321 320 315 303 315 279 246 243 247 249 235 212 116 106 101 106 86 101 130 152 140 118 110 107 151 141 139 136 138 140 149 179 134 124 130 100 90 64 31
322 263 292 327 319 314 329 328 337 323 272 258 275 306 314 337 110 120 122 137 119 122 141 144 136 104 123 113 121 113 112 128 124 115 88 83 63 65 54 53 45 38 56 89
293 280 285 294 297 270 284 294 3 286 315 306 343 271 23 1 0 57 53 136 130 153 192 151 130 122 130 133 142 142 160 138 98 97 97 86 84 105 106 77 66 63 59 49
346 305 318 308 294 266 259 66 65 333 238 247 273 255 11 353 337 351 60 146 142 161 205 123 142 132 124 143 155 147 135 119 115 135 129 136 121 99 102 87 63 52 54 42
287 273 265 271 279 290 295 303 268 201 289 326 273 322 350 346 321 324 328 330 144 151 131 136 160 147 150 161 148 131 123 119 133 153 114 91 90 102 96 100 75 48 54 40
264 271 273 273 283 288 287 295 291 253 237 245 286 306 321 316 302 312 305 324 358 144 151 192 167 148 156 165 150 143 137 130 123 103 95 110 106 94 85 74 74 62 57 61
283 283 290 286 287 288 285 281 284 278 272 241 254 267 216 258 293 313 324 336 339 338 187 190 159 170 258 162 143 141 134 135 126 112 119 115 106 94 90 80 78 68 73 71
282 283 283 277 290 297 282 275 280 284 284 259 245 254 187 171 289 299 333 305 314 326 12 185 162 170 215 249 140 145 135 134 131 126 134 131 124 114 98 89 77 66 74 74
259 257 270 280 293 272 267 256 260 268 272 282 258 243 236 179 181 273 305 13 8 356 356 6 44 170 189 236 143 140 131 147 136 136 142 155 126 113 99 91 85 80 85 77
226 235 252 249 261 272 286 264 274 279 303 283 233 278 148 185 235 200 296 26 30 342 344 339 323 309 176 188 158 140 138 149 135 139 143 117 118 114 108 101 96 92 93 87
40 259 212 226 272 276 299 316 321 318 283 282 227 230 151 155 221 174 173 343 5 328 336 311 279 270 180 174 150 141 139 141 142 141 134 120 120 118 114 111 106 104 98 97
174 234 242 247 255 261 270 334 9 258 322 339 106 29 161 165 182 60 28 45 324 318 310 317 319 302 167 163 145 149 142 148 141 133 128 121 119 119 120 113 106 114 111 108
282 260 242 235 227 275 37 32 5 285 331 328 54 54 58 63 58 70 331 341 318 0 345 2 307 332 141 152 146 150 146 135 134 136 133 129 128 126 126 122 116 124 124 114
275 216 305 271 289 309 302 180 204 278 302 270 82 77 81 86 112 157 324 312 325 5 20 359 19 48 91 124 149 147 140 131 136 137 137 135 136 130 134 134 135 126 122 118
300 288 256 316 283 315 325 306 221 262 287 304 67 106 104 82 59 5 347 333 333 3 9 329 101 57 53 121 146 145 134 136 139 144 145 149 150 138 144 144 133 121 117 117
275 304 296 278 287 334 331 320 244 259 287 268 250 152 322 1 314 340 336 341 333 354 332 341 125 147 162 111 121 138 140 140 143 150 148 153 141 134 146 78 114 123 121 125
249 256 267 276 303 177 248 278 281 322 311 253 239 236 231 190 253 320 302 308 316 324 338 335 326 141 162 154 112 146 145 145 144 151 155 147 145 137 116 100 73 56 103 112